Location: Franzen
(48.6167°N, 15.3833°E)
Time: 03:53:45
(UTC+00:00)

Transit 2A - Pass Details

Date: 03 August 2021
Orbit: 594 x 964 km, 66.7° (Epoch: 21 September)

Event Time Altitude Azimuth Distance (km) Brightness Sun altitude
Rises 09:19:37 0° 315° (NW) 3,049 8.7 52.2°
Reaches altitude 10° 09:24:47 10° 2° (N) 2,252 8.3 52.8°
Maximum altitude 09:25:09 10° 7° (N) 2,256 8.3 52.8°
Drops below altitude 10° 09:25:32 10° 11° (N) 2,269 8.3 52.8°
Sets 09:31:05 0° 56° (ENE) 3,333 9.4 53.4°
